User: anonymous   Login
Location: Godiavel Galaoual
(15.2485°N, 12.6604°W)
Time: 02:56:19
(UTC+00:00)
Language:

DELFI C3 - Orbit

View from above orbital plane
View from above orbital plane
View from above satellite
View from above satellite

Ground track
Ground track

The orbit data is extracted from the following two-line orbital elements,

1 32789U 08021G   21216.68605200  .00001916  00000-0  12422-3 0  9990
2 32789  97.3738 250.1918 0010885 345.7792  14.3130 15.09212746724207
Epoch (UTC): 04 August 2021 16:27:54
Eccentricity: 0.0010885
inclination: 97.3738°
perigee height: 531 km
apogee height: 546 km
right ascension of ascending node: 250.1918°
argument of perigee: 345.7792°
revolutions per day: 15.09212746
mean anomaly at epoch: 14.3130°
orbit number at epoch: 72420

The dashed part of the orbit path shows where the satellite is in the earth's shadow,  

DLR